Location: Larch Mountain
(45.5297°N, 122.0872°W)
Time: 23:33:12
(UTC-07:00)

ISS - All Passes

Search period start: 01 August 2014 00:00
Search period end: 11 August 2014 00:00
Orbit: 411 x 419 km, 51.6° (Epoch: 01 August)

Date Brightness Start Highest point End Pass type
(mag) Time Alt. Az. Time Alt. Az. Time Alt. Az.
01 Aug - 01:24:25 10° WNW 01:27:26 30° N 01:30:28 10° NE visible
01 Aug - 03:01:40 10° NW 03:04:45 32° N 03:07:49 10° ENE visible
01 Aug - 04:38:21 10° WNW 04:41:43 82° SSW 04:45:05 10° ESE visible
01 Aug - 06:16:19 10° WSW 06:17:58 13° SW 06:19:36 10° SSW daylight
01 Aug - 22:58:17 10° SW 23:01:34 61° SSE 23:04:53 10° ENE visible
02 Aug - 00:35:20 10° W 00:38:27 35° NNW 00:41:35 10° NE visible
02 Aug - 02:12:46 10° WNW 02:15:45 28° N 02:18:44 10° ENE visible
02 Aug - 03:49:30 10° WNW 03:52:52 67° NNE 03:56:13 10° ESE visible
02 Aug - 05:26:42 10° W 05:29:19 21° SW 05:31:56 10° S daylight
02 Aug - 22:09:41 10° SSW 22:12:47 37° SE 22:15:55 10° ENE visible
02 Aug - 23:46:15 10° W 23:49:29 44° NNW 23:52:44 10° NE visible
03 Aug - 01:23:47 10° WNW 01:26:43 27° N 01:29:40 10° ENE visible
03 Aug - 03:00:40 10° NW 03:03:57 47° NNE 03:07:13 10° E visible
03 Aug - 04:37:31 10° WNW 04:40:36 34° SW 04:43:41 10° SSE visible
03 Aug - 21:21:22 10° SSW 21:24:04 23° SE 21:26:46 10° E visible
03 Aug - 22:57:15 10° WSW 23:00:33 62° NNW 23:03:53 10° ENE visible
04 Aug - 00:34:44 10° WNW 00:37:41 28° N 00:40:40 10° ENE visible
04 Aug - 02:11:49 10° NW 02:14:59 37° NNE 02:18:08 10° E visible
04 Aug - 03:48:31 10° WNW 03:51:49 56° SW 03:55:07 10° SE visible
04 Aug - 20:33:32 10° SSE 20:35:23 14° SE 20:37:15 10° E daylight
04 Aug - 22:08:20 10° WSW 22:11:40 88° SSE 22:15:01 10° ENE visible
04 Aug - 23:45:38 10° WNW 23:48:40 31° N 23:51:42 10° NE visible
05 Aug - 01:22:56 10° NW 01:25:59 31° N 01:29:01 10° ENE visible
05 Aug - 02:59:37 10° WNW 03:02:59 89° SSW 03:06:21 10° ESE night (unlit)
05 Aug - 04:37:21 10° W 04:39:16 14° SW 04:41:10 10° SSW visible
05 Aug - 21:19:33 10° SW 21:22:49 55° SE 21:26:06 10° ENE visible
05 Aug - 22:56:31 10° W 22:59:39 36° NNW 23:02:48 10° NE visible
06 Aug - 00:33:59 10° WNW 00:36:56 28° N 00:39:54 10° ENE visible
06 Aug - 02:10:44 10° WNW 02:14:05 62° NNE 02:17:25 10° ESE night (unlit)
06 Aug - 03:47:50 10° W 03:50:34 23° SW 03:53:18 10° SSE night (unlit)
06 Aug - 20:30:59 10° SSW 20:34:01 34° SE 20:37:04 10° ENE daylight
06 Aug - 22:07:25 10° W 22:10:40 47° NNW 22:13:55 10° NE visible
06 Aug - 23:44:57 10° WNW 23:47:53 27° N 23:50:49 10° ENE visible
07 Aug - 01:21:53 10° NW 01:25:07 44° NNE 01:28:22 10° E visible
07 Aug - 02:58:40 10° WNW 03:01:49 37° SW 03:04:57 10° SSE night (unlit)
07 Aug - 19:42:42 10° S 19:45:16 21° SE 19:47:51 10° E daylight
07 Aug - 21:18:24 10° WSW 21:21:42 67° NNW 21:25:03 10° ENE visible
07 Aug - 22:55:52 10° WNW 22:58:49 28° N 23:01:47 10° ENE visible
08 Aug - 00:32:59 10° NW 00:36:07 35° NNE 00:39:14 10° E visible
08 Aug - 02:09:40 10° WNW 02:13:00 62° SSW 02:16:18 10° SE night (unlit)
08 Aug - 18:55:01 10° SSE 18:56:34 13° SE 18:58:07 10° ESE daylight
08 Aug - 20:29:28 10° WSW 20:32:48 81° SSE 20:36:08 10° ENE daylight
08 Aug - 22:06:43 10° WNW 22:09:46 32° N 22:12:49 10° NE visible
08 Aug - 23:44:03 10° NW 23:47:04 30° N 23:50:05 10° ENE visible
09 Aug - 01:20:44 10° WNW 01:24:06 84° NNE 01:27:28 10° ESE visible
09 Aug - 02:58:17 10° W 03:00:26 16° SW 03:02:33 10° S night (unlit)
09 Aug - 19:40:42 10° SW 19:43:55 50° SE 19:47:10 10° ENE daylight
09 Aug - 21:17:34 10° W 21:20:43 38° NNW 21:23:53 10° NE visible
09 Aug - 22:55:03 10° WNW 22:58:00 28° N 23:00:57 10° ENE visible
10 Aug - 00:31:50 10° WNW 00:35:09 57° NNE 00:38:28 10° ESE visible
10 Aug - 02:08:51 10° W 02:11:41 26° SW 02:14:31 10° SSE night (unlit)
10 Aug - 18:52:09 10° SSW 18:55:06 30° SE 18:58:05 10° ENE daylight
10 Aug - 20:28:27 10° W 20:31:43 50° NNW 20:34:59 10° NE daylight
10 Aug - 22:05:59 10° WNW 22:08:54 27° N 22:11:50 10° ENE visible
10 Aug - 23:42:57 10° NW 23:46:09 42° NNE 23:49:22 10° E visible
